Location: Melbourne
(37.8120°S, 144.9677°E)
Time: 18:25:07
(UTC+10:00)

Daily predictions for brighter satellites

Satellite Brightness Start Highest point End
(mag) Time Altitude Azimuth Time Altitude Azimuth Time Altitude Azimuth
Cosmos 1727 Rocket 4.3 17:32:33 10° NNE 17:38:40 52° E 17:44:52 10° SSE
Cosmos 1782 3.2 17:35:20 10° SSW 17:39:23 70° W 17:43:23 10° N
COSMOS 2441 4.4 17:37:47 10° SSE 17:42:45 80° E 17:47:37 10° N
Hubble Space Telescope 3.0 17:40:35 10° NNW 17:43:19 17° NNE 17:46:01 10° NE
NOAA 6 4.2 17:38:53 10° S 17:44:05 81° WSW 17:49:14 10° NNW
ARGOS Delta rocket 3.8 17:40:30 10° NNE 17:45:15 87° E 17:49:51 10° S
Cosmos 1943 Rocket 2.7 17:40:46 10° N 17:46:02 41° ENE 17:51:21 10° SE
Cosmos 1461 2.9 17:42:48 10° NW 17:46:52 76° WSW 17:50:49 10° SSE
IDEFIX/ARIANE 42P 3.5 17:42:16 10° S 17:47:22 52° WSW 17:52:25 10° NNW
Cosmos 1862 3.3 17:44:30 10° N 17:48:31 82° E 17:52:39 10° S
CZ-2C R/B 4.0 17:47:16 10° N 17:51:43 71° WNW 17:56:13 10° SSW
Meteor 1-27 Rocket 3.8 17:46:40 10° S 17:52:35 64° E 17:58:19 10° NNE
ALOS 4.1 17:51:11 10° ESE 17:53:16 13° E 17:55:19 10° ENE
Cosmos 1741 Rocket 4.0 17:51:30 10° NNW 17:56:44 84° ENE 18:02:03 10° SSE
USA 81 4.3 17:52:41 10° NNE 17:57:48 51° E 18:02:58 10° SSE
RESURS DK-1 3.6 17:54:39 10° NW 17:58:35 42° WSW 18:02:36 10° S
Okean 1-7 3.0 17:57:16 10° S 18:01:39 85° E 18:05:57 10° N
EO 1 Del DPAF 3.7 18:03:38 10° NE 18:07:11 38° ESE 18:10:48 10° S
Cosmos 304 Rocket 3.7 18:05:55 10° SSW 18:10:48 71° ESE 18:15:37 10° NNE
CZ-3C R/B 4.2 18:10:31 10° NNE 18:13:17 13° NE 18:17:50 10° ENE
Cosmos 1570 Rocket 4.0 18:09:41 10° SSW 18:14:59 67° ESE 18:20:16 10° NNE
Cosmos 1633 3.4 18:11:59 10° NNE 18:15:14 30° E 18:17:39 15° SE
SJ-12 4.3 18:11:14 10° S 18:15:21 68° WSW 18:19:25 10° NNW
Cosmos 1459 Rocket 4.2 18:09:24 10° S 18:15:23 45° ESE 18:21:13 10° NNE
Thor Agena Rocket 4.4 18:12:20 10° ENE 18:16:31 26° ESE 18:20:42 10° SSE
Lacrosse 5 3.4 18:16:08 10° W 18:20:36 29° SW 18:25:06 10° SSE
COSMOS 2487 3.5 18:18:08 10° SSW 18:21:35 48° WNW 18:25:00 10° N
Cosmos 2263 4.2 18:18:02 10° NNW 18:23:48 84° ENE 18:29:39 10° SSE
Cosmos 1656 Rocket 4.2 18:20:45 10° NNE 18:25:35 34° ENE 18:28:27 21° SE
Cosmos 2173 Rocket 4.1 18:20:07 10° S 18:26:20 56° E 18:32:34 10° NNE
SJ-7 4.4 18:25:30 10° SSE 18:29:39 87° ENE 18:33:48 10° NNW
Cosmos 2221 Rocket 4.3 18:26:03 10° SSW 18:30:38 61° W 18:35:09 10° N
Cosmos 1733 Rocket 3.1 18:27:22 10° N 18:31:45 62° E 18:36:12 10° SSE
SMAP 3.0 18:27:07 10° SSE 18:31:50 64° E 18:36:28 10° N
Okean 3 4.0 18:34:18 10° S 18:38:22 37° ESE 18:42:23 10° NNE
Timation 2 Rocket 4.4 18:32:42 10° SSW 18:39:02 64° WNW 18:45:04 10° N
Cosmos 1814 Rocket 4.2 18:34:14 10° S 18:39:10 43° ESE 18:44:05 10° NE
Cosmos 1674 Rocket 3.9 18:35:13 10° S 18:39:27 42° E 18:43:39 10° NNE
Meteor 1-4 Rocket 2.7 18:38:16 10° N 18:42:06 81° W 18:45:44 12° S
Cosmos 1486 Rocket 4.4 18:38:31 10° N 18:43:28 41° ENE 18:45:18 31° ESE
Cosmos 2100 Rocket 4.0 18:38:41 10° S 18:45:10 87° E 18:51:35 10° N
Meteor 1-20 Rocket 4.3 18:39:37 10° N 18:45:20 57° E 18:51:06 10° SSE
Cosmos 2369 Rocket 3.2 18:40:39 10° NW 18:46:00 45° WSW 18:51:25 10° S
FENGYUN 3A 3.9 18:43:41 22° SE 18:46:52 44° E 18:51:58 10° N
Cosmos 2061 Rocket 4.0 18:40:37 10° S 18:47:07 70° E 18:53:33 10° NNE
Cosmos 2208 Rocket 4.3 18:42:03 10° SSW 18:47:27 70° WNW 18:52:43 10° N
Cosmos 1437 Rocket 4.1 18:43:56 10° NNW 18:47:44 41° WSW 18:51:33 10° S
Cosmos 1484 Rocket 4.2 18:44:15 10° S 18:47:52 37° WSW 18:51:24 10° NW
Cosmos 2016 Rocket 3.9 18:42:45 10° S 18:48:56 59° E 18:54:58 10° NNE
ASTRO E2 4.5 18:46:54 10° WNW 18:50:17 26° NNW 18:52:16 18° NNE
CZ-4 R/B 1.5 18:49:01 33° SE 18:50:46 60° E 18:54:56 10° N
ATLAS 5 CENTAUR R/B 4.0 18:49:41 10° WNW 18:55:44 33° SW 19:01:25 10° SSE
METEOR-M 4.0 18:51:17 10° SSE 18:56:43 84° ENE 19:02:06 10° NNW
Cosmos 1725 Rocket 4.0 18:55:31 10° S 19:01:41 55° E 19:07:43 10° NNE
CENTAUR R/B 4.2 19:05:41 10° SW 19:10:26 27° WNW 19:14:58 10° NNW
YAOGAN 1 2.6 19:14:37 67° NNE 19:14:37 67° NNE 19:18:30 10° N
CSL-04 Rocket 4.0 19:10:53 10° S 19:16:23 68° WSW 19:21:53 10° NNW
Cosmos 1812 4.1 19:13:21 10° SSW 19:17:02 39° W 19:20:39 10° NNW
Ariane Rocket 3.0 19:18:53 29° S 19:21:33 77° WSW 19:26:37 10° NNW
OAO 3 Rocket 4.1 19:18:54 10° NW 19:23:06 37° N 19:23:06 37° N
Hubble Space Telescope 2.6 19:20:39 10° NW 19:23:36 22° N 19:23:36 22° N
Cosmos 2123 Rocket 4.0 19:18:50 10° N 19:25:03 81° W 19:31:24 10° S
Cosmos 1943 Rocket 4.0 19:25:06 10° WNW 19:29:53 27° WSW 19:34:43 10° S
ALOS 2.8 19:29:28 38° SSW 19:31:02 58° WSW 19:35:39 10° NNW
Cosmos 389 Rocket 4.3 19:29:43 10° NNW 19:31:56 30° NW 19:31:56 30° NW
Cosmos 1763 Rocket 4.3 19:31:08 10° SSW 19:36:14 50° WNW 19:41:21 10° N
Cosmos 841 Rocket 3.8 19:37:07 10° SSW 19:42:17 64° WNW 19:42:40 62° NW
USA 215 4.3 20:04:14 32° N 20:04:14 32° N 20:07:49 10° NNW
ATLAS 3B CENTAUR R/B 4.2 20:05:46 10° W 20:27:30 54° NNW 20:29:24 50° NNE
